Regional Weather Roundup
Issued by NWS

Home | Current Version | Previous Version | Text Only | Print | Product List | Glossary On
Versions: 1 2 3 4 5 6 7 8 9 10 11 12 13 14 15 16 17 18 19 20 21 22 23 24 25 26 27 28 29 30 31 32 33 34 35 36 37 38 39 40 41 42 43 44 45 46 47 48 49 50
000
ASUS44 KLIX 021411
RWRLA
LOUISIANA WEATHER ROUNDUP
NATIONAL WEATHER SERVICE NEW ORLEANS LA
900 AM CDT WED SEP 02 2015

NOTE: "FAIR" INDICATES FEW OR NO CLOUDS BELOW 12,000 FEET WITH NO
      SIGNIFICANT WEATHER AND/OR OBSTRUCTIONS TO VISIBILITY.
      SKY/WX - SKY CONDITION AND SIGNIFICANT WEATHER.
      TMP - AIR TEMPERATURE.    DP   - DEWPOINT TEMPERATURE.
      RH  - RELATIVE HUMIDITY.  PRES - PRESSURE.
      HX  - HEAT INDEX.         WCI  - WIND CHILL INDEX.

*  THESE STATIONS ARE NOT NWS OR FAA STATIONS AND ARE NOT UNDER
   NWS QUALITY CONTROL.

LAZ040-048-061>063-065-066-069-021500-
SOUTHEAST LOUISIANA

CITY           SKY/WX    TMP DP  RH WIND       PRES   REMARKS
N.O. AUDUBON     N/A     86  76  73 MISG        N/A  HX  95
N.O. INTL ARPT CLOUDY    83  73  72 NE9       30.06F
N.O. LAKEFRONT PTSUNNY   84  75  74 NE9       30.07S
N.O. DOWNTOWN* PTSUNNY   84  73  70 N3        30.07F
RESERVE*       PTSUNNY   83  75  77 NE3       30.06F
SLIDELL        PTSUNNY   81  75  82 NE5       30.07S
BATON ROUGE    CLOUDY    80  72  76 CALM      30.06F
BOOTHVILLE     MOSUNNY   84  74  71 E6        30.07S
BELLE CHASSE   PTSUNNY   86  74  67 NE7       30.06S
BOGALUSA*      NOT AVBL
GALLIANO*      RAIN      77  73  87 NW5       30.07R
NEW ROADS*     CLOUDY    77  73  89 CALM      30.07R
GONZALES*      PTSUNNY   81  75  80 CALM      30.06S
HAMMOND*       CLOUDY    82  72  69 CALM      30.09S
HOUMA*         NOT AVBL
PORT FOURCHON* SUNNY     84  73  70 E10       30.07R

$$

LAZ041-044-053-054-021500-
SOUTHWEST LOUISIANA

CITY           SKY/WX    TMP DP  RH WIND       PRES   REMARKS
LAKE CHARLES   CLOUDY    77  73  87 E8        30.05F
LAFAYETTE      CLOUDY    78  73  84 CALM      30.07R
PATTERSON      PTSUNNY   81  73  78 NE6       30.07S
SALT POINT       N/A     81  76  84 VRB3      30.04S
NEW IBERIA     CLOUDY    80  74  81 NE6       30.07S
CHENAULT AIRPK NOT AVBL

$$

LAZ027-028-021500-
CENTRAL LOUISIANA

CITY           SKY/WX    TMP DP  RH WIND       PRES   REMARKS
FORT POLK      CLOUDY    75  72  89 VRB3      30.07R
ALEXANDRIA INT CLOUDY    75  72  90 NE7       30.06S
ALEXANDRIA     CLOUDY    79  71  76 CALM      30.08S

$$

LAZ001-002-021500-
NORTHWEST LOUISIANA

CITY           SKY/WX    TMP DP  RH WIND       PRES   REMARKS
SHREVEPORT     CLOUDY    77  71  82 CALM      30.09R
BARKSDALE AFB  CLOUDY    76  71  84 CALM      30.09R
DTN SHREVEPORT PTSUNNY   76  69  79 CALM      30.09R

$$

LAZ014-016-021500-
NORTHEAST LOUISIANA

CITY           SKY/WX    TMP DP  RH WIND       PRES   REMARKS
MONROE         CLOUDY    79  70  74 CALM      30.09R
TALLULAH       CLOUDY    79  72  79 CALM      30.09R

$$



USA.gov is the U.S. government's official web portal to all federal, state and local government web resources and services.